Skip Page Navigation
NASA JPL Caltech
NASA Logo - Jet Propulsion Laboratory + View the NASA Portal
+ Near-Earth Object (NEO) Program
Search JPL
JPL Home Earth Solar System Stars & Galaxies Technology
JPL Solar System Dynamics
BODIES ORBITS EPHEMERIDES TOOLS PHYSICAL DATA DISCOVERY FAQ SITE MAP
JPL Small-Body Database Browser
Search: [ help ]  
138404 (2000 HA24)
Classification: Apollo [NEO, PHA]          SPK-ID: 2138404
Ephemeris | Orbit Diagram | Orbital Elements | Physical Parameters | Discovery Circumstances | Close-Approach Data ]

[ hide orbit diagram ]
Orbit Diagram
Note: Make sure you have Java enabled on your browser to see the applet. This applet is provided as a 3D orbit visualization tool. The applet was implemented using 2-body methods, and hence should not be used for determining accurate long-term trajectories (over several years or decades) or planetary encounter circumstances. For accurate long-term ephemerides, please instead use our Horizons system.
Orbit Viewer

Additional Notes: the orbits shown in the applet are color coded. The planets are white lines, and the asteroid/comet is a blue line. The bright white line indicates the portion of the orbit that is above the ecliptic plane, and the darker portion is below the ecliptic plane. Likewise for the asteroid/comet orbit, the light blue indicates the portion above the ecliptic plane, and the dark blue the portion below the ecliptic plane.

Orbit Viewer applet originally written and kindly provided by Osamu Ajiki (AstroArts), and further modified by Ron Baalke (JPL).


Orbital Elements at Epoch 2456400.5 (2013-Apr-18.0) TDB
Reference: JPL 60 (heliocentric ecliptic J2000)
 Element Value Uncertainty (1-sigma)   Units 
e .3194641602846189 7.681e-08  
a 1.140707070345489 3.4173e-09 AU
q .7762920439868395 8.8384e-08 AU
i 2.169986708310107 5.5521e-06 deg
node 309.6879864357833 0.00015246 deg
peri 141.8618346057779 0.00015493 deg
M 335.4822589590649 2.4052e-05 deg
tp 2456430.806625322927
(2013-May-18.30662532)
2.9683e-05 JED
period 444.9996065313516
1.22
1.9997e-06
5.475e-09
d
yr
n .8089894793528023 3.6353e-09 deg/d
Q 1.505122096704138 4.509e-09 AU
  Orbit Determination Parameters
   # obs. used (total)      233  
   data-arc span      10841 days (29.68 yr)  
   first obs. used      1982-07-20  
   last obs. used      2012-03-25  
   planetary ephem.      DE405  
   SB-pert. ephem.      SB405-CPV-2  
   condition code      0  
   fit RMS      .5428  
   data source      ORB  
   producer      Otto Matic  
   solution date      2013-Apr-29 15:38:52  

Additional Information
 Earth MOID = .0272302 AU 
 T_jup = 5.448 
[ show covariance matrix ]

Ephemeris | Orbit Diagram | Orbital Elements | Physical Parameters | Discovery Circumstances | Close-Approach Data ]

Physical Parameter Table
Parameter Symbol Value Units Sigma Reference Notes
absolute magnitude H 18.907 mag .71163 60 autocmod 2.5c

138404 (2000 HA24)          Discovered 2000-Apr-28 by LINEAR at Socorro (704)
Reference: 20061205/Numbers.arcLast Updated: 2006-12-13

[ show close-approach data ]
Ephemeris | Orbit Diagram | Orbital Elements | Physical Parameters | Discovery Circumstances | Close-Approach Data ]
ABOUT SSD CREDITS/AWARDS PRIVACY/COPYRIGHT GLOSSARY LINKS
FirstGov 2013-May-23 03:00 UT
(server date/time)  
NASA Home Page
Site Manager:   Donald K. Yeomans
Webmaster  Alan B. Chamberlin